Regional Weather Roundup
Issued by NWS

Home | Current Version | Previous Version | Graphics & Text | Print | Product List | Glossary On
Versions: 1 2 3 4 5 6 7 8 9 10 11 12 13 14 15 16 17 18 19 20 21 22 23 24 25 26 27 28 29 30 31 32 33 34 35 36 37 38 39 40 41 42 43 44 45 46 47 48 49 50
000
ASUS43 KLOT 290200
RWRIL

ILLINOIS REGIONAL WEATHER ROUNDUP
NATIONAL WEATHER SERVICE CHICAGO/ROMEOVILLE IL
800 PM CST WED JAN 28 2015

NOTE: "FAIR" INDICATES FEW OR NO CLOUDS BELOW 12,000 FEET WITH NO
SIGNIFICANT WEATHER AND/OR OBSTRUCTIONS TO VISIBILITY.

* THESE STATIONS ARE NOT UNDER NWS QUALITY CONTROL. THEY ALSO MAY NOT
  REPORT WEATHER SUCH AS PRECIPITATION OR FOG.

ILZ001-002-007-009-015-016-024-290300-
NORTHWEST ILLINOIS

CITY           SKY/WX    TMP DP  RH WIND       PRES   REMARKS
MOLINE         CLOUDY    37  30  75 SE10      29.80F WCI  30
STERLING*      CLOUDY    34  28  80 SE10      29.86S WCI  26
$$

ILZ003-004-008-010-011-017-018-290300-
NORTH CENTRAL ILLINOIS

CITY           SKY/WX    TMP DP  RH WIND       PRES   REMARKS
ROCKFORD       CLOUDY    32  24  72 S13G24    29.91S WCI  22
$$

ILZ005-006-012>014-019>023-290300-
NORTHEAST ILLINOIS

CITY           SKY/WX    TMP DP  RH WIND       PRES   REMARKS
CHICAGO-OHARE  CLOUDY    32  20  61 S17       29.91F WCI  21
CHICAGO-MIDWAY CLOUDY    35  21  56 S15G26    29.93F WCI  25
AURORA         CLOUDY    33  23  66 SE15G26   29.90F WCI  23
WAUKEGAN       CLOUDY    31  23  72 SE18G26   29.91F WCI  19
DUPAGE AIRPORT MOCLDY    32  22  66 S20G25    29.90F WCI  20
WHEELING       CLOUDY    32  20  61 S14G22    29.94F WCI  22
NORTHERLY ISL    N/A     33  21  61 SE16        N/A  WCI  23
$$

LMZ740>746-290300-
SOUTHERN LAKE MICHIGAN

STATION/POSITION SKY/WX   TEMP    WIND        PRES    VSBY  WAVE
                          AIR SEA DIR/SP/G                  HT/PER
                          (F)     (DEG/KT/KT) (MB)    (MI)  (FT/S)
WAUKEGAN HARBOR            32     160/ 25/ 31   N/A
HARRISON CRIB              32     150/ 23/ 30   N/A
BURNHAM HARBOR             33     160/ 12/ 22   N/A
CALUMET HARBOR             33     140/ 15/ 22   N/A
MICHIGAN CITY              31     130/ 18/ 25   N/A
$$

ILZ025>027-034>036-040-047-049-050-058-095>099-290300-
WEST-CENTRAL ILLINOIS

CITY           SKY/WX    TMP DP  RH WIND       PRES   REMARKS
QUINCY         MOCLDY    45  32  60 S16G25    29.76F
$$

ILZ028>032-037-038-041>044-048-051>054-059>061-290300-
CENTRAL ILLINOIS

CITY           SKY/WX    TMP DP  RH WIND       PRES   REMARKS
DECATUR        MOCLDY    37  27  67 S16G26    29.93F WCI  28
PEORIA         CLOUDY    38  30  73 S18G25    29.86F WCI  28
SPRINGFIELD    CLOUDY    40  31  70 S23G32    29.89F
TAYLORVILLE    NOT AVBL
$$

ILZ033-039-045-046-055>057-062-063-290300-
EAST-CENTRAL ILLINOIS

CITY           SKY/WX    TMP DP  RH WIND       PRES   REMARKS
CHAMPAIGN      PTCLDY    35  25  66 SE22      29.95F WCI  23
MATTOON        PTCLDY    36  23  59 S26G32    29.95F WCI  24
$$

ILZ079-100>102-290300-
SOUTHWEST ILLINOIS

CITY           SKY/WX    TMP DP  RH WIND       PRES   REMARKS
ALTON          CLEAR     41  32  70 S15G23    29.93F
BELLEVILLE     MOCLDY    41  33  74 S8G17     29.95F
CAHOKIA*       MOCLDY    44  34  67 S13G21    29.94F
$$

ILZ064>066-069>071-074>076-080>082-084>086-088>090-092>094-290300-
SOUTH-CENTRAL ILLINOIS

CITY           SKY/WX    TMP DP  RH WIND       PRES   REMARKS
CARBONDALE     PTCLDY    42  30  62 S8        30.04F
MT. VERNON     MOCLDY    39  28  65 SE7       30.03F WCI  34
$$

ILZ067-068-072-073-078-083-087-091-290300-
SOUTHEAST ILLINOIS

CITY           SKY/WX    TMP DP  RH WIND       PRES   REMARKS
LAWRENCEVILLE  MOCLDY    36  24  62 SE12      30.08F WCI  28
$$

ABBREVIATIONS USED IN REMARKS
   TC - TEMPERATURE IN CELSIUS
  WCI - WIND CHILL INDEX
   HX - HEAT INDEX
  VSB - VISIBILITY
$$



USA.gov is the U.S. government's official web portal to all federal, state and local government web resources and services.